Location: Spruce Knob
(38.6995°N, 79.5330°W)
Time: 20:53:08
(UTC-05:00)

FO-29 - Visible Passes

Search period start: 28 November 2023 00:00
Search period end: 08 December 2023 00:00
Orbit: 800 x 1321 km, 98.6° (Epoch: 28 November)

Date Brightness Start Highest point End Pass type
(mag) Time Alt. Az. Time Alt. Az. Time Alt. Az.
28 Nov 12.1 03:40:55 10° N 03:41:22 12° N 03:41:22 12° N visible
29 Nov 11.9 04:31:28 10° N 04:31:57 12° N 04:31:57 12° N visible
30 Nov 12.2 03:35:45 10° N 03:36:04 11° N 03:36:04 11° N visible
01 Dec 12.0 04:26:14 10° N 04:26:40 12° N 04:26:40 12° N visible
02 Dec 12.3 03:30:36 10° N 03:30:47 11° N 03:30:47 11° N visible
03 Dec 12.0 04:21:02 10° N 04:21:23 11° N 04:21:23 11° N visible
04 Dec 12.3 03:25:28 10° NNE 03:25:31 10° NNE 03:25:31 10° NNE visible
05 Dec 12.1 04:15:50 10° N 04:16:06 11° N 04:16:06 11° N visible
07 Dec 12.2 04:10:40 10° N 04:10:51 11° N 04:10:51 11° N visible
